When you browse on this site, cookies collect data to enhance your experience and personalize the content and advertising you see.
Visit our Privacy Policy to learn more. By continuing to use the site, you agree to this use of cookies and data.
  • în România
  • Lista ţărilor
  • Pe 7 zile
  • Temperatura apei
  • Hartă satelitară
  • Meteo pe hartă
  • Widget-uri
  • user-avatar
    Intrare

    Meteo pe oră la Hajdarabad

    Astăzi, 25 Mai, Sâmbătă

    Timp Temperatura Precipitaţii Vânt Presiune Umiditate
    00:00 +38°C° 0 mm 6 m/s 750 mmHg 40%
    01:00 +36°C° 0 mm 6 m/s 750 mmHg 38%
    02:00 +36°C° 0 mm 5 m/s 750 mmHg 36%
    03:00 +36°C° 0 mm 5 m/s 750 mmHg 37%
    04:00 +35°C° 0 mm 5 m/s 750 mmHg 38%
    05:00 +35°C° 0 mm 5 m/s 750 mmHg 41%
    06:00 +35°C° 0 mm 5 m/s 750 mmHg 40%
    07:00 +36°C° 0 mm 5 m/s 750 mmHg 38%
    08:00 +37°C° 0 mm 5 m/s 750 mmHg 37%
    09:00 +40°C° 0 mm 5 m/s 750 mmHg 29%
    10:00 +42°C° 0 mm 4 m/s 750 mmHg 22%
    11:00 +45°C° 0 mm 4 m/s 750 mmHg 14%
    12:00 +47°C° 0 mm 4 m/s 750 mmHg 13%
    13:00 +47°C° 0 mm 4 m/s 749 mmHg 11%
    14:00 +48°C° 0 mm 4 m/s 749 mmHg 9%
    15:00 +48°C° 0 mm 4 m/s 748 mmHg 9%
    16:00 +48°C° 0 mm 4 m/s 748 mmHg 9%
    17:00 +48°C° 0 mm 4 m/s 748 mmHg 9%
    18:00 +47°C° 0 mm 5 m/s 748 mmHg 13%
    19:00 +45°C° 0 mm 7 m/s 748 mmHg 16%
    20:00 +43°C° 0 mm 8 m/s 748 mmHg 20%
    21:00 +41°C° 0 mm 8 m/s 748 mmHg 22%
    22:00 +40°C° 0 mm 7 m/s 748 mmHg 24%
    23:00 +39°C° 0 mm 7 m/s 749 mmHg 26%

    Mâine, 26 Mai, Duminică

    Timp Temperatura Precipitaţii Vânt Presiune Umiditate
    00:00 +38°C° 0 mm 7 m/s 748 mmHg 28%
    01:00 +38°C° 0 mm 7 m/s 748 mmHg 31%
    02:00 +36°C° 0 mm 7 m/s 748 mmHg 34%
    03:00 +35°C° 0 mm 6 m/s 748 mmHg 38%
    04:00 +35°C° 0 mm 6 m/s 748 mmHg 43%
    05:00 +34°C° 0 mm 6 m/s 748 mmHg 47%
    06:00 +35°C° 0 mm 6 m/s 748 mmHg 47%
    07:00 +35°C° 0 mm 5 m/s 748 mmHg 47%
    08:00 +35°C° 0 mm 5 m/s 748 mmHg 46%
    09:00 +38°C° 0 mm 4 m/s 748 mmHg 37%
    10:00 +41°C° 0 mm 4 m/s 748 mmHg 28%
    11:00 +44°C° 0 mm 3 m/s 748 mmHg 19%
    12:00 +45°C° 0 mm 3 m/s 748 mmHg 15%
    13:00 +47°C° 0 mm 3 m/s 747 mmHg 11%
    14:00 +48°C° 0 mm 3 m/s 747 mmHg 7%
    15:00 +50°C° 0 mm 3 m/s 747 mmHg 6%
    16:00 +50°C° 0 mm 4 m/s 746 mmHg 6%
    17:00 +50°C° 0 mm 4 m/s 746 mmHg 5%
    18:00 +48°C° 0 mm 6 m/s 746 mmHg 9%
    19:00 +46°C° 0 mm 7 m/s 747 mmHg 12%
    20:00 +44°C° 0 mm 9 m/s 747 mmHg 16%
    21:00 +43°C° 0 mm 8 m/s 747 mmHg 19%
    22:00 +41°C° 0 mm 8 m/s 748 mmHg 22%
    23:00 +40°C° 0 mm 7 m/s 748 mmHg 25%

    Poimâine, 27 Mai, Luni

    Timp Temperatura Precipitaţii Vânt Presiune Umiditate
    00:00 +39°C° 0 mm 7 m/s 748 mmHg 30%
    01:00 +38°C° 0 mm 8 m/s 747 mmHg 34%
    02:00 +37°C° 0 mm 8 m/s 747 mmHg 38%
    03:00 +37°C° 0 mm 8 m/s 747 mmHg 42%
    04:00 +35°C° 0 mm 8 m/s 747 mmHg 46%
    05:00 +34°C° 0 mm 7 m/s 747 mmHg 50%
    06:00 +35°C° 0 mm 7 m/s 747 mmHg 48%
    07:00 +36°C° 0 mm 7 m/s 748 mmHg 46%
    08:00 +36°C° 0 mm 6 m/s 748 mmHg 44%
    09:00 +40°C° 0 mm 6 m/s 748 mmHg 34%
    10:00 +44°C° 0 mm 6 m/s 748 mmHg 24%
    11:00 +48°C° 0 mm 6 m/s 748 mmHg 14%
    12:00 +49°C° 0 mm 5 m/s 748 mmHg 12%
    13:00 +50°C° 0 mm 5 m/s 747 mmHg 9%
    14:00 +52°C° 0 mm 5 m/s 747 mmHg 7%
    15:00 +52°C° 0 mm 6 m/s 747 mmHg 6%
    16:00 +52°C° 0 mm 7 m/s 746 mmHg 6%
    17:00 +51°C° 0 mm 7 m/s 746 mmHg 6%
    18:00 +49°C° 0 mm 8 m/s 746 mmHg 11%
    19:00 +47°C° 0 mm 9 m/s 747 mmHg 16%
    20:00 +43°C° 0 mm 9 m/s 747 mmHg 21%
    21:00 +42°C° 0 mm 9 m/s 748 mmHg 23%
    22:00 +42°C° 0 mm 9 m/s 748 mmHg 24%
    23:00 +40°C° 0 mm 9 m/s 748 mmHg 26%

    28 Mai, Marţi

    Timp Temperatura Precipitaţii Vânt Presiune Umiditate
    00:00 +39°C° 0 mm 9 m/s 748 mmHg 28%
    01:00 +39°C° 0 mm 9 m/s 748 mmHg 30%
    02:00 +38°C° 0 mm 9 m/s 747 mmHg 33%
    03:00 +37°C° 0 mm 8 m/s 747 mmHg 36%
    04:00 +37°C° 0 mm 8 m/s 747 mmHg 39%
    05:00 +35°C° 0 mm 8 m/s 747 mmHg 43%
    06:00 +36°C° 0 mm 7 m/s 748 mmHg 41%
    07:00 +36°C° 0 mm 7 m/s 748 mmHg 39%
    08:00 +38°C° 0 mm 7 m/s 749 mmHg 38%
    09:00 +41°C° 0 mm 6 m/s 749 mmHg 30%
    10:00 +44°C° 0 mm 6 m/s 749 mmHg 23%
    11:00 +47°C° 0 mm 6 m/s 749 mmHg 16%
    12:00 +48°C° 0 mm 6 m/s 748 mmHg 13%
    13:00 +51°C° 0 mm 7 m/s 748 mmHg 10%
    14:00 +52°C° 0 mm 7 m/s 747 mmHg 7%
    15:00 +52°C° 0 mm 8 m/s 747 mmHg 8%
    16:00 +51°C° 0 mm 9 m/s 746 mmHg 10%
    17:00 +50°C° 0 mm 10 m/s 746 mmHg 11%
    18:00 +48°C° 0 mm 10 m/s 746 mmHg 16%
    19:00 +45°C° 0 mm 10 m/s 747 mmHg 21%
    20:00 +42°C° 0 mm 10 m/s 747 mmHg 26%
    21:00 +40°C° 0 mm 10 m/s 748 mmHg 28%
    22:00 +40°C° 0 mm 10 m/s 748 mmHg 31%
    23:00 +39°C° 0 mm 10 m/s 749 mmHg 33%

    29 Mai, Miercuri

    Timp Temperatura Precipitaţii Vânt Presiune Umiditate
    00:00 +38°C° 0 mm 10 m/s 748 mmHg 35%
    01:00 +38°C° 0 mm 10 m/s 748 mmHg 37%
    02:00 +37°C° 0 mm 10 m/s 748 mmHg 39%
    03:00 +37°C° 0 mm 10 m/s 747 mmHg 42%
    04:00 +36°C° 0 mm 10 m/s 747 mmHg 44%
    05:00 +36°C° 0 mm 10 m/s 747 mmHg 47%
    06:00 +35°C° 0 mm 9 m/s 748 mmHg 46%
    07:00 +37°C° 0 mm 9 m/s 748 mmHg 44%
    08:00 +38°C° 0 mm 9 m/s 748 mmHg 43%
    09:00 +40°C° 0 mm 9 m/s 748 mmHg 37%
    10:00 +43°C° 0 mm 9 m/s 748 mmHg 30%
    11:00 +46°C° 0 mm 8 m/s 748 mmHg 24%
    12:00 +48°C° 0 mm 8 m/s 747 mmHg 20%
    13:00 +49°C° 0 mm 8 m/s 747 mmHg 17%
    14:00 +51°C° 0 mm 8 m/s 746 mmHg 13%
    15:00 +50°C° 0 mm 9 m/s 746 mmHg 16%
    16:00 +49°C° 0 mm 10 m/s 745 mmHg 20%
    17:00 +47°C° 0 mm 10 m/s 745 mmHg 23%
    18:00 +45°C° 0 mm 10 m/s 746 mmHg 27%
    19:00 +43°C° 0 mm 10 m/s 746 mmHg 31%
    20:00 +40°C° 0 mm 10 m/s 746 mmHg 35%
    21:00 +39°C° 0 mm 10 m/s 747 mmHg 36%
    22:00 +39°C° 0 mm 10 m/s 747 mmHg 37%
    23:00 +38°C° 0 mm 9 m/s 747 mmHg 38%

    30 Mai, Joi

    Timp Temperatura Precipitaţii Vânt Presiune Umiditate
    00:00 +37°C° 0 mm 9 m/s 747 mmHg 41%
    01:00 +37°C° 0 mm 9 m/s 746 mmHg 43%
    02:00 +37°C° 0 mm 9 m/s 746 mmHg 46%
    03:00 +35°C° 0 mm 8 m/s 746 mmHg 48%
    04:00 +35°C° 0 mm 8 m/s 746 mmHg 51%
    05:00 +34°C° 0 mm 7 m/s 746 mmHg 53%
    06:00 +35°C° 0 mm 7 m/s 746 mmHg 51%
    07:00 +36°C° 0 mm 6 m/s 747 mmHg 48%
    08:00 +38°C° 0 mm 6 m/s 747 mmHg 45%
    09:00 +41°C° 0 mm 6 m/s 747 mmHg 36%
    10:00 +43°C° 0 mm 5 m/s 747 mmHg 28%
    11:00 +47°C° 0 mm 5 m/s 747 mmHg 19%
    12:00 +49°C° 0 mm 4 m/s 746 mmHg 15%
    13:00 +50°C° 0 mm 4 m/s 745 mmHg 11%
    14:00 +52°C° 0 mm 3 m/s 745 mmHg 7%
    15:00 +53°C° 0 mm 5 m/s 744 mmHg 7%
    16:00 +53°C° 0 mm 6 m/s 744 mmHg 8%
    17:00 +53°C° 0 mm 7 m/s 744 mmHg 8%
    18:00 +50°C° 0 mm 8 m/s 744 mmHg 12%
    19:00 +48°C° 0 mm 9 m/s 744 mmHg 16%
    20:00 +44°C° 0 mm 10 m/s 745 mmHg 20%
    21:00 +43°C° 0 mm 10 m/s 745 mmHg 21%
    22:00 +43°C° 0 mm 11 m/s 745 mmHg 22%
    23:00 +42°C° 0 mm 11 m/s 746 mmHg 24%
    Arată mai mult